TimeCDT,TemperatureF,Dew PointF,Humidity,Sea Level PressureIn,VisibilityMPH,Wind Direction,Wind SpeedMPH,Gust SpeedMPH,PrecipitationIn,Events,Conditions,WindDirDegrees,DateUTC
12:53 AM,57.9,51.1,78,30.04,10.0,South,5.8,-,N/A,,Clear,180,2013-04-07 05:53:00
1:53 AM,55.9,51.1,84,30.03,10.0,South,5.8,-,N/A,,Clear,180,2013-04-07 06:53:00
2:53 AM,55.9,52.0,87,30.02,10.0,South,5.8,-,N/A,,Clear,170,2013-04-07 07:53:00
3:53 AM,55.9,52.0,87,30.01,10.0,South,5.8,-,N/A,,Mostly Cloudy,170,2013-04-07 08:53:00
4:53 AM,55.0,52.0,89,30.01,10.0,SSE,5.8,-,N/A,,Scattered Clouds,160,2013-04-07 09:53:00
5:53 AM,55.0,52.0,89,30.03,10.0,Calm,Calm,-,N/A,,Mostly Cloudy,0,2013-04-07 10:53:00
6:53 AM,55.9,53.1,90,30.05,10.0,Calm,Calm,-,N/A,,Overcast,0,2013-04-07 11:53:00
7:53 AM,57.0,54.0,89,30.06,10.0,Calm,Calm,-,N/A,,Overcast,0,2013-04-07 12:53:00
8:53 AM,61.0,55.0,81,30.06,10.0,SSE,8.1,-,N/A,,Mostly Cloudy,160,2013-04-07 13:53:00
9:53 AM,64.9,55.9,73,30.06,10.0,South,5.8,-,N/A,,Overcast,170,2013-04-07 14:53:00
10:53 AM,70.0,55.0,59,30.06,10.0,South,15.0,25.3,N/A,,Overcast,190,2013-04-07 15:53:00
11:53 AM,69.1,53.1,57,30.06,10.0,SSW,13.8,19.6,N/A,,Mostly Cloudy,210,2013-04-07 16:53:00
12:53 PM,71.1,54.0,55,30.03,10.0,South,9.2,18.4,N/A,,Mostly Cloudy,190,2013-04-07 17:53:00
1:53 PM,73.0,53.1,49,30.01,10.0,SSW,9.2,19.6,N/A,,Mostly Cloudy,200,2013-04-07 18:53:00
2:53 PM,75.0,54.0,48,29.98,10.0,South,12.7,19.6,N/A,,Partly Cloudy,180,2013-04-07 19:53:00
3:53 PM,77.0,54.0,45,29.94,10.0,South,11.5,-,N/A,,Partly Cloudy,170,2013-04-07 20:53:00
4:53 PM,75.0,54.0,48,29.93,10.0,South,10.4,-,N/A,,Mostly Cloudy,170,2013-04-07 21:53:00
5:53 PM,75.9,55.0,48,29.91,10.0,South,9.2,-,N/A,,Scattered Clouds,180,2013-04-07 22:53:00
6:53 PM,73.0,54.0,51,29.90,10.0,South,10.4,-,N/A,,Clear,190,2013-04-07 23:53:00
7:53 PM,70.0,55.0,59,29.91,10.0,South,4.6,-,N/A,,Mostly Cloudy,170,2013-04-08 00:53:00
8:53 PM,64.9,57.0,75,29.92,10.0,SSE,3.5,-,N/A,,Partly Cloudy,150,2013-04-08 01:53:00
9:53 PM,66.9,57.0,70,29.94,10.0,SSE,4.6,-,N/A,,Clear,160,2013-04-08 02:53:00
10:53 PM,64.0,57.0,78,29.93,10.0,South,6.9,-,N/A,,Clear,180,2013-04-08 03:53:00
11:53 PM,63.0,57.0,81,29.94,10.0,South,5.8,-,N/A,,Partly Cloudy,170,2013-04-08 04:53:00